| time (UTC) | temp F | wind direction | speed knots | gust knots | rain 1hr in | rain 24hr in | rain mn in | humidity % | barometer mb |
| 20260505182118 | 83 | 109 | 4.3 | 6.1 | 0.00 | 0.00 | 0.00 | 74 | 1005.7 |
| 20260505175115 | 84 | 134 | 2.6 | 2.6 | 0.00 | 0.00 | 0.00 | 73 | 1006.0 |
| 20260505172114 | 83 | 195 | 4.3 | 5.2 | 0.00 | 0.00 | 0.00 | 74 | 1005.9 |
| 20260505165114 | 80 | 180 | 1.7 | 2.6 | 0.00 | 0.00 | 0.00 | 77 | 1005.9 |
| 20260505162109 | 81 | 123 | 2.6 | 5.2 | 0.00 | 0.00 | 0.00 | 75 | 1005.8 |
| 20260505152104 | 78 | 200 | 2.6 | 2.6 | 0.00 | 0.00 | 0.00 | 80 | 1006.0 |
| 20260505122050 | 71 | 171 | 7.8 | 11.3 | 0.00 | 0.00 | 0.00 | 90 | 1004.7 |
| 20260505115045 | 71 | 198 | 0.9 | 0.9 | 0.00 | 0.00 | 0.00 | 90 | 1004.9 |
| 20260505112044 | 71 | 187 | 2.6 | 2.6 | 0.00 | 0.00 | 0.00 | 90 | 1004.6 |
| 20260505102039 | 71 | 158 | 1.7 | 4.3 | 0.00 | 0.00 | 0.00 | 89 | 1004.6 |
| 20260505095037 | 72 | 189 | 3.5 | 5.2 | 0.00 | 0.00 | 0.00 | 88 | 1004.9 |
| 20260505092037 | 71 | 169 | 2.6 | 4.3 | 0.00 | 0.00 | 0.00 | 89 | 1005.1 |
| 20260505085033 | 71 | 188 | 3.5 | 6.1 | 0.00 | 0.00 | 0.00 | 89 | 1005.2 |
| 20260505082033 | 71 | 173 | 4.3 | 6.1 | 0.00 | 0.00 | 0.00 | 89 | 1005.5 |
| 20260505075030 | 71 | 276 | 2.6 | 2.6 | 0.00 | 0.00 | 0.00 | 89 | 1005.6 |
| 20260505072029 | 71 | 182 | 4.3 | 6.1 | 0.00 | 0.00 | 0.00 | 87 | 1006.1 |
| 20260505065025 | 72 | 211 | 3.5 | 4.3 | 0.00 | 0.00 | 0.00 | 86 | 1006.1 |
| 20260505062025 | 73 | 174 | 7.0 | 9.6 | 0.00 | 0.00 | 0.00 | 84 | 1006.5 |
| 20260505055024 | 73 | 211 | 1.7 | 1.7 | 0.00 | 0.00 | 0.00 | 83 | 1006.6 |
| 20260505052019 | 73 | 184 | 1.7 | 1.7 | 0.00 | 0.00 | 0.00 | 81 | 1006.7 |
| 20260505035010 | 74 | 215 | 0.9 | 1.7 | 0.00 | 0.00 | 0.00 | 77 | 1006.9 |
| 20260505032010 | 74 | 165 | 1.7 | 2.6 | 0.00 | 0.00 | 0.00 | 77 | 1007.0 |
| 20260505025009 | 75 | 195 | 1.7 | 1.7 | 0.00 | 0.00 | 0.00 | 75 | 1007.1 |
| 20260505022010 | 75 | 155 | 1.7 | 2.6 | 0.00 | 0.00 | 0.00 | 74 | 1006.8 |
| 20260505015006 | 76 | 168 | 1.7 | 2.6 | 0.00 | 0.00 | 0.00 | 73 | 1006.9 |
| 20260505012000 | 76 | 169 | 5.2 | 7.8 | 0.00 | 0.00 | 0.00 | 72 | 1006.8 |
| 20260505004957 | 77 | 163 | 3.5 | 6.1 | 0.00 | 0.00 | 0.00 | 70 | 1006.9 |
| 20260505001956 | 78 | 183 | 3.5 | 5.2 | 0.00 | 0.00 | 0.00 | 69 | 1006.9 |
| 20260504234956 | 78 | 186 | 5.2 | 7.8 | 0.00 | 0.00 | 0.00 | 67 | 1007.1 |
| 20260504231954 | 79 | 202 | 1.7 | 1.7 | 0.00 | 0.00 | 0.00 | 66 | 1007.3 |
| 20260504224953 | 80 | 163 | 1.7 | 2.6 | 0.00 | 0.00 | 0.00 | 64 | 1007.5 |
| 20260504221952 | 80 | 201 | 4.3 | 5.2 | 0.00 | 0.00 | 0.00 | 64 | 1007.7 |
| 20260504214950 | 81 | 188 | 4.3 | 5.2 | 0.00 | 0.00 | 0.00 | 63 | 1008.1 |
| 20260504211948 | 82 | 161 | 5.2 | 7.8 | 0.00 | 0.00 | 0.00 | 61 | 1008.7 |
| 20260504204942 | 80 | 176 | 3.5 | 5.2 | 0.00 | 0.00 | 0.00 | 63 | 1009.1 |
| 20260504201937 | 80 | 130 | 6.1 | 7.8 | 0.00 | 0.00 | 0.00 | 61 | 1009.8 |
| 20260504194936 | 81 | 152 | 8.7 | 12.2 | 0.00 | 0.00 | 0.00 | 59 | 1010.5 |
| 20260504191931 | 80 | 148 | 7.0 | 7.8 | 0.00 | 0.00 | 0.00 | 58 | 1010.9 |